Regional Weather Roundup
Issued by NWS

Home | Current Version | Previous Version | Text Only | Print | Product List | Glossary Off
Versions: 1 2 3 4 5 6 7 8 9 10 11 12 13 14 15 16 17 18 19 20 21 22 23 24 25 26 27 28 29 30 31 32 33 34 35 36 37 38 39 40 41 42 43 44 45 46 47 48 49 50

000
ASUS43 KLMK 031802
RWRKY
KENTUCKY REGIONAL WEATHER ROUNDUP
NATIONAL WEATHER SERVICE LOUISVILLE KY
100 PM EST TUE MAR 03 2015

NOTE "FAIR" INDICATES FEW OR NO CLOUDS BELOW 12,000 FEET
WITH NO SIGNIFICANT WEATHER AND/OR OBSTRUCTIONS TO VISIBILITY.

KYZ001>023-026-027-061>063-070>075-031900-
WESTERN AND SOUTH CENTRAL KENTUCKY

CITY           SKY/WX    TMP DP  RH WIND       PRES   REMARKS
PADUCAH        FOG       47  46  97 SW10      29.93F VSB 1/2
HENDERSON      CLOUDY    46  43  87 S16G23    29.90F
OWENSBORO      CLOUDY    46  46 100 SW12      29.93F FOG
HOPKINSVILLE   CLOUDY    56  54  93 S15G25    29.97F
BOWLING GREEN    N/A     58  51  78 S17       29.99F
GLASGOW        NOT AVBL
$$

KYZ024-025-028>034-038-045-046-053-031900-
NORTH CENTRAL KENTUCKY

CITY           SKY/WX    TMP DP  RH WIND       PRES   REMARKS
LOUISVILLE/SDF CLOUDY    50  47  89 S12       29.90F FOG
LOUISVILLE/LOU CLOUDY    48  45  89 S9        29.92F
FORT KNOX      CLOUDY    52  49  92 S20G29    29.91S
$$

KYZ035>037-039>044-047>052-055>060-089>105-031900-
NORTHEAST KENTUCKY

CITY           SKY/WX    TMP DP  RH WIND       PRES   REMARKS
LEXINGTON      CLOUDY    48  46  93 S15       29.94F
COVINGTON      LGT RAIN  39  37  92 S15G21    29.86F FOG     WCI  31
FRANKFORT      CLOUDY    49  46  90 S8        29.92F
$$

KYZ054-064>069-076>088-106>120-031900-
SOUTHEAST KENTUCKY

CITY           SKY/WX    TMP DP  RH WIND       PRES   REMARKS
JACKSON        CLOUDY    52  43  71 SW5       30.00F
LONDON         CLOUDY    57  47  69 S14       30.02F
SOMERSET       NOT AVBL
MIDDLESBORO    NOT AVBL
MONTICELLO     CLOUDY    61  55  80 S15       30.04F
$$




USA.gov is the U.S. government's official web portal to all federal, state and local government web resources and services.